Poplar Bluff, MO

2:40 PM CDT on March 27, 2017 (GMT -0500)
Poplar Bluff Municipal

Weather History for KPOF - April, 2013

Change the Weather History Date:

Sunday, April 14, 2013

  Actual Average Record
Temperature  
Mean Temperature 60 °F -  
Max Temperature 75 °F 69 °F 89 °F (1925)
Min Temperature 46 °F 48 °F 28 °F (1950)
Degree Days  
Heating Degree Days 6    
Growing Degree Days 10 (Base 50)    
Moisture  
Dew Point 50 °F    
Average Humidity 69    
Maximum Humidity 90    
Minimum Humidity 44    
Precipitation  
Precipitation 0.00 in - - ()
Sea Level Pressure  
Sea Level Pressure 29.80 in    
Wind  
Wind Speed 5 mph (SSE)    
Max Wind Speed 23 mph    
Max Gust Speed 32 mph    
Visibility 10 miles    
Events      
Averages and records for this station are not official NWS values.
T = Trace of Precipitation, MM = Missing Value Source: NWS Daily Summary

Daily Weather History Graph

Daily Weather History Graph

Search for Another Location

Airport or City:

Trip Planner

Search our weather history database for the weather conditions in past years. The results will help you decide how hot, cold, wet, or windy it might be!

Date:

Astronomy

Apr. 14, 2013 Rise Set
Actual Time 6:28 AM CDT 7:35 PM CDT
Civil Twilight 6:01 AM CDT 8:01 PM CDT
Nautical Twilight 5:29 AM CDT 8:33 PM CDT
Astronomical Twilight 4:57 AM CDT 9:06 PM CDT
Moon 9:09 AM CDT (4/14) 11:43 PM CDT (4/14)
Length of Visible Light 14h 00m
Length of Day
13h 06m
Waxing Crescent, 17% of the Moon is Illuminated
Apr 14
Waxing Crescent
Apr 18
First Quarter
Apr 25
Full
May 2
Last Quarter
May 9
New

Hourly Weather History & Observations

Time (CDT) Temp. Dew Point Humidity Pressure Visibility Wind Dir Wind Speed Gust Speed Precip Events Conditions
12:53 AM 50.0 °F 46.0 °F 86% 29.93 in 10.0 mi Calm Calm - N/A   Clear
1:53 AM 46.9 °F 44.1 °F 90% 29.91 in 10.0 mi Calm Calm - N/A   Clear
2:53 AM 46.9 °F 43.0 °F 86% 29.88 in 10.0 mi Calm Calm - N/A   Clear
3:53 AM 46.9 °F 43.0 °F 86% 29.84 in 10.0 mi Calm Calm - N/A   Clear
4:53 AM 46.9 °F 43.0 °F 86% 29.85 in 10.0 mi Calm Calm - N/A   Clear
5:53 AM 46.0 °F 42.1 °F 86% 29.84 in 10.0 mi Calm Calm - N/A   Clear
6:53 AM 46.0 °F 43.0 °F 89% 29.85 in 10.0 mi Calm Calm - N/A   Clear
7:53 AM 52.0 °F 46.9 °F 83% 29.84 in 10.0 mi Calm Calm - N/A   Clear
8:53 AM 59.0 °F 48.9 °F 69% 29.83 in 10.0 mi Calm Calm - N/A   Clear
9:53 AM 63.0 °F 48.9 °F 60% 29.81 in 10.0 mi SE 6.9 mph - N/A   Clear
10:53 AM 66.9 °F 48.9 °F 52% 29.81 in 10.0 mi SSE 12.7 mph - N/A   Clear
11:53 AM 70.0 °F 50.0 °F 49% 29.79 in 10.0 mi South 11.5 mph - N/A   Clear
12:53 PM 73.0 °F 50.0 °F 44% 29.76 in 10.0 mi South 15.0 mph 21.9 mph N/A   Clear
1:53 PM 73.0 °F 55.0 °F 53% 29.74 in 10.0 mi South 16.1 mph 24.2 mph N/A   Clear
3:53 PM 73.9 °F 55.9 °F 53% 29.71 in 10.0 mi SSE 20.7 mph 32.2 mph N/A   Partly Cloudy
4:53 PM 73.9 °F 55.0 °F 52% 29.70 in 10.0 mi SSE 23.0 mph 29.9 mph N/A   Mostly Cloudy
5:53 PM 69.1 °F 55.9 °F 63% 29.70 in 10.0 mi SE 20.7 mph 27.6 mph N/A   Scattered Clouds
6:53 PM 68.0 °F 55.0 °F 63% 29.73 in 10.0 mi SSE 18.4 mph 26.5 mph N/A   Mostly Cloudy
7:53 PM 66.0 °F 55.0 °F 68% 29.73 in 10.0 mi SSE 12.7 mph - N/A   Overcast
8:53 PM 64.9 °F 55.0 °F 70% 29.74 in 10.0 mi SSE 10.4 mph - N/A   Mostly Cloudy
9:53 PM 64.9 °F 55.0 °F 70% 29.76 in 10.0 mi SSE 12.7 mph - N/A   Overcast
10:53 PM 64.9 °F 54.0 °F 68% 29.78 in 10.0 mi South 11.5 mph - N/A   Overcast
11:53 PM 63.0 °F 53.1 °F 70% 29.80 in 10.0 mi SSW 10.4 mph - N/A   Overcast